Вернуться в каталог

FENGYUN 1C DEB

АктивенSSO
NORAD 31984·DEBRIS·🇨🇳 China

Запущен May 10, 1999 с Taiyuan Satellite Launch Center

Loading…

Ближайшие Пролёты (ближайшие 24 часа)

TLE

СвежийSource: Space-Track

Эпоха: Sep 12, 2026, 05:29 UTC

1 31984U 99025CPM 26255.22857679  .00000402  00000-0  19204-3 0  9991
2 31984  98.5623 257.0755 0063605 151.3641 209.1055 14.23355546982630

Отслеживайте FENGYUN 1C DEB в реальном времени с AllMySat

Download on the App Store